Location: Fort Worth, Tx
(32.7431°N, 97.3695°W)
Time: 10:51:27
(UTC-04:00)

A-11 Canister half - Pass Details

Date: 15 August 2024
Orbit: 1524 x 1684 km, 47.3° (Epoch: 13 September)

Event Time Altitude Azimuth Distance (km) Brightness Sun altitude
Rises 23:37:42 0° 230° (SW) 4,843 11.7 -27.4°
Reaches altitude 10° 23:40:47 10° 230° (SW) 3,877 11.2 -27.9°
Maximum altitude 23:50:48 90° 336° (NNW) 1,676 9.0 -29.5°
Drops below altitude 10° 00:01:02 10° 53° (NE) 3,950 11.1 -31.0°
Sets 00:04:12 0° 53° (NE) 4,938 11.6 -31.5°
